When you browse on this site, cookies collect data to enhance your experience and personalize the content and advertising you see.
Visit our Privacy Policy to learn more. By continuing to use the site, you agree to this use of cookies and data.
  • In Hungary
  • List of Countries
  • For 7 days
  • Water Temperature
  • Satellite Maps
  • Weather Map
  • News
  • Weather Widgets
  • user-avatar
    Login

    Hourly Weather Alcaniz

    Today, 19 April, Friday

    Time Temperature Precipitation Wind Pressure Humidity
    00:00 +11°C° 0.8 mm 9 mps 726 mmHg 79%
    01:00 +11°C° 2.5 mm 9 mps 726 mmHg 81%
    02:00 +11°C° 2.5 mm 9 mps 727 mmHg 82%
    03:00 +11°C° 2.5 mm 9 mps 727 mmHg 83%
    04:00 +11°C° 0.9 mm 9 mps 727 mmHg 82%
    05:00 +11°C° 0.9 mm 9 mps 727 mmHg 81%
    06:00 +11°C° 0.9 mm 10 mps 727 mmHg 81%
    07:00 +12°C° 0.1 mm 11 mps 727 mmHg 77%
    08:00 +13°C° 0.1 mm 12 mps 727 mmHg 74%
    09:00 +13°C° 0.1 mm 12 mps 727 mmHg 70%
    10:00 +14°C° 0 mm 13 mps 728 mmHg 67%
    11:00 +15°C° 0 mm 13 mps 728 mmHg 63%
    12:00 +17°C° 0 mm 14 mps 728 mmHg 59%
    13:00 +17°C° 0 mm 14 mps 728 mmHg 57%
    14:00 +17°C° 0 mm 14 mps 728 mmHg 55%
    15:00 +17°C° 0 mm 14 mps 729 mmHg 53%
    16:00 +15°C° 0 mm 12 mps 729 mmHg 56%
    17:00 +16°C° 0 mm 11 mps 729 mmHg 59%
    18:00 +14°C° 0 mm 10 mps 729 mmHg 61%
    19:00 +13°C° 0 mm 9 mps 730 mmHg 62%
    20:00 +14°C° 0 mm 7 mps 730 mmHg 64%
    21:00 +13°C° 0 mm 6 mps 730 mmHg 65%
    22:00 +13°C° 0 mm 5 mps 730 mmHg 66%
    23:00 +13°C° 0 mm 4 mps 730 mmHg 67%

    Tomorrow, 20 April, Saturday

    Time Temperature Precipitation Wind Pressure Humidity
    00:00 +12°C° 0 mm 3 mps 730 mmHg 68%
    01:00 +12°C° 0 mm 3 mps 730 mmHg 69%
    02:00 +12°C° 0 mm 2 mps 730 mmHg 70%
    03:00 +12°C° 0 mm 2 mps 729 mmHg 70%
    04:00 +12°C° 0 mm 2 mps 729 mmHg 69%
    05:00 +12°C° 0 mm 2 mps 729 mmHg 67%
    06:00 +12°C° 0 mm 2 mps 729 mmHg 66%
    07:00 +13°C° 0 mm 4 mps 729 mmHg 58%
    08:00 +15°C° 0 mm 5 mps 729 mmHg 50%
    09:00 +16°C° 0 mm 7 mps 729 mmHg 43%
    10:00 +17°C° 0 mm 8 mps 729 mmHg 42%
    11:00 +17°C° 0 mm 9 mps 729 mmHg 40%
    12:00 +18°C° 0 mm 10 mps 729 mmHg 39%
    13:00 +17°C° 0.1 mm 10 mps 728 mmHg 43%
    14:00 +16°C° 0.1 mm 10 mps 728 mmHg 46%
    15:00 +14°C° 0.1 mm 10 mps 728 mmHg 50%
    16:00 +13°C° 0.7 mm 8 mps 728 mmHg 57%
    17:00 +12°C° 0.7 mm 7 mps 728 mmHg 64%
    18:00 +12°C° 0.7 mm 5 mps 728 mmHg 71%
    19:00 +11°C° 0.9 mm 4 mps 728 mmHg 75%
    20:00 +11°C° 0.9 mm 3 mps 729 mmHg 79%
    21:00 +12°C° 0.9 mm 2 mps 729 mmHg 82%
    22:00 +10°C° 0.6 mm 2 mps 729 mmHg 83%
    23:00 +10°C° 0.6 mm 3 mps 728 mmHg 84%

    Day after tomorrow, 21 April, Sunday

    Time Temperature Precipitation Wind Pressure Humidity
    00:00 +10°C° 0.6 mm 3 mps 728 mmHg 85%
    01:00 +10°C° 1.1 mm 4 mps 728 mmHg 87%
    02:00 +10°C° 1.1 mm 4 mps 727 mmHg 88%
    03:00 +8°C° 1.1 mm 5 mps 726 mmHg 90%
    04:00 +8°C° 1.1 mm 5 mps 726 mmHg 89%
    05:00 +8°C° 1.1 mm 5 mps 726 mmHg 89%
    06:00 +8°C° 1.1 mm 4 mps 726 mmHg 88%
    07:00 +8°C° 0.5 mm 4 mps 726 mmHg 86%
    08:00 +10°C° 0.5 mm 4 mps 726 mmHg 85%
    09:00 +10°C° 0.5 mm 3 mps 726 mmHg 83%
    10:00 +10°C° 0.5 mm 3 mps 725 mmHg 83%
    11:00 +10°C° 0.5 mm 3 mps 725 mmHg 84%
    12:00 +10°C° 0.5 mm 3 mps 725 mmHg 84%
    13:00 +11°C° 0.5 mm 3 mps 725 mmHg 83%
    14:00 +12°C° 0.5 mm 2 mps 724 mmHg 83%
    15:00 +12°C° 0.5 mm 2 mps 724 mmHg 82%
    16:00 +12°C° 0.2 mm 2 mps 724 mmHg 82%
    17:00 +12°C° 0.2 mm 1 mps 724 mmHg 83%
    18:00 +12°C° 0.2 mm 1 mps 723 mmHg 83%
    19:00 +12°C° 0.2 mm 1 mps 724 mmHg 84%
    20:00 +12°C° 0.2 mm 1 mps 724 mmHg 85%
    21:00 +12°C° 0.2 mm 1 mps 724 mmHg 86%
    22:00 +12°C° 0.1 mm 1 mps 723 mmHg 86%
    23:00 +12°C° 0.1 mm 1 mps 723 mmHg 87%

    22 April, Monday

    Time Temperature Precipitation Wind Pressure Humidity
    00:00 +10°C° 0.1 mm 2 mps 722 mmHg 87%
    01:00 +10°C° 0 mm 2 mps 721 mmHg 88%
    02:00 +10°C° 0 mm 2 mps 721 mmHg 88%
    03:00 +10°C° 0 mm 2 mps 720 mmHg 89%
    04:00 +10°C° 0.3 mm 2 mps 720 mmHg 89%
    05:00 +10°C° 0.3 mm 2 mps 719 mmHg 89%
    06:00 +10°C° 0.3 mm 2 mps 719 mmHg 89%
    07:00 +12°C° 0.4 mm 2 mps 719 mmHg 85%
    08:00 +12°C° 0.4 mm 2 mps 719 mmHg 81%
    09:00 +13°C° 0.4 mm 2 mps 718 mmHg 76%
    10:00 +14°C° 0.1 mm 2 mps 718 mmHg 71%
    11:00 +14°C° 0.1 mm 3 mps 718 mmHg 66%
    12:00 +16°C° 0.1 mm 3 mps 718 mmHg 60%
    13:00 +16°C° 0 mm 3 mps 717 mmHg 59%
    14:00 +16°C° 0 mm 3 mps 717 mmHg 58%
    15:00 +15°C° 0 mm 4 mps 716 mmHg 57%
    16:00 +15°C° 0 mm 4 mps 716 mmHg 58%
    17:00 +14°C° 0 mm 4 mps 716 mmHg 60%
    18:00 +14°C° 0 mm 4 mps 716 mmHg 61%
    19:00 +13°C° 0 mm 3 mps 716 mmHg 65%
    20:00 +12°C° 0 mm 3 mps 716 mmHg 68%
    21:00 +11°C° 0 mm 3 mps 717 mmHg 72%
    22:00 +11°C° 0 mm 3 mps 716 mmHg 73%
    23:00 +11°C° 0 mm 3 mps 716 mmHg 74%

    23 April, Tuesday

    Time Temperature Precipitation Wind Pressure Humidity
    00:00 +11°C° 0 mm 3 mps 716 mmHg 75%
    01:00 +10°C° 0 mm 3 mps 716 mmHg 76%
    02:00 +10°C° 0 mm 2 mps 715 mmHg 77%
    03:00 +10°C° 0 mm 2 mps 715 mmHg 78%
    04:00 +10°C° 0 mm 2 mps 715 mmHg 78%
    05:00 +10°C° 0 mm 2 mps 715 mmHg 78%
    06:00 +12°C° 0 mm 1 mps 715 mmHg 77%
    07:00 +13°C° 0 mm 2 mps 716 mmHg 70%
    08:00 +15°C° 0 mm 2 mps 716 mmHg 64%
    09:00 +17°C° 0 mm 2 mps 716 mmHg 57%
    10:00 +18°C° 0.1 mm 2 mps 716 mmHg 52%
    11:00 +19°C° 0.1 mm 2 mps 716 mmHg 48%
    12:00 +20°C° 0.1 mm 2 mps 716 mmHg 44%
    13:00 +20°C° 0.8 mm 2 mps 716 mmHg 45%
    14:00 +20°C° 0.8 mm 3 mps 716 mmHg 47%
    15:00 +20°C° 0.8 mm 3 mps 716 mmHg 48%
    16:00 +19°C° 1.9 mm 3 mps 716 mmHg 56%
    17:00 +17°C° 1.9 mm 4 mps 717 mmHg 64%
    18:00 +15°C° 1.9 mm 4 mps 717 mmHg 72%
    19:00 +14°C° 0.5 mm 3 mps 717 mmHg 71%
    20:00 +13°C° 0.5 mm 3 mps 718 mmHg 70%
    21:00 +14°C° 0.5 mm 2 mps 719 mmHg 70%
    22:00 +13°C° 0.1 mm 2 mps 719 mmHg 69%
    23:00 +13°C° 0.1 mm 2 mps 719 mmHg 69%

    24 April, Wednesday

    Time Temperature Precipitation Wind Pressure Humidity
    00:00 +12°C° 0.1 mm 2 mps 719 mmHg 68%
    01:00 +12°C° 0 mm 2 mps 719 mmHg 70%
    02:00 +12°C° 0 mm 1 mps 719 mmHg 71%
    03:00 +11°C° 0 mm 1 mps 719 mmHg 72%
    04:00 +12°C° 0 mm 1 mps 720 mmHg 71%
    05:00 +12°C° 0 mm 1 mps 720 mmHg 71%
    06:00 +12°C° 0 mm 0 mps 720 mmHg 70%
    07:00 +13°C° 0.5 mm 1 mps 720 mmHg 71%
    08:00 +13°C° 0.5 mm 1 mps 721 mmHg 73%
    09:00 +12°C° 0.5 mm 1 mps 721 mmHg 74%
    10:00 +13°C° 0.2 mm 1 mps 721 mmHg 69%
    11:00 +14°C° 0.2 mm 1 mps 721 mmHg 64%
    12:00 +15°C° 0.2 mm 2 mps 721 mmHg 59%
    13:00 +16°C° 0 mm 3 mps 721 mmHg 54%
    14:00 +17°C° 0 mm 4 mps 721 mmHg 49%
    15:00 +19°C° 0 mm 5 mps 720 mmHg 44%
    16:00 +17°C° 0 mm 5 mps 721 mmHg 47%
    17:00 +16°C° 0 mm 5 mps 721 mmHg 51%
    18:00 +16°C° 0 mm 6 mps 721 mmHg 54%
    19:00 +14°C° 0 mm 5 mps 721 mmHg 59%
    20:00 +13°C° 0 mm 5 mps 721 mmHg 65%
    21:00 +12°C° 0 mm 5 mps 721 mmHg 71%
    22:00 +12°C° 0 mm 4 mps 721 mmHg 72%
    23:00 +12°C° 0 mm 4 mps 721 mmHg 74%
    Show more